{"data":{"norad_id":43180,"epoch":"2026-05-25T05:06:41.719104Z","epoch_age_seconds":52661,"freshness":"FRESH","line1":"1 43180U 18014A   26145.21298286  .00002260  00000+0  99506-4 0  9998","line2":"2 43180  97.3598  51.1995 0001974  81.4555 278.6905 15.22858823461224","mean_motion":15.22858823,"eccentricity":0.0001974,"inclination_deg":97.3598,"raan_deg":51.1995,"arg_perigee_deg":81.4555,"mean_anomaly_deg":278.6905,"bstar":9.9506e-5,"rev_number":46122,"period_min":94.558995111788,"perigee_km":495.8653126425,"apogee_km":498.5797045765,"semimajor_km":6875.3595086095,"source":"CELESTRAK","updated_at":"2026-05-25T13:37:55.789051Z"}}